daydeal.ch alexa rank chart, daydeal.ch alexa rank daily changes

daydeal.ch alexa rank chart, daydeal.ch alexa rank daily changes

daydeal.ch
Actual rank:
44 586

RANK HISTORY

Date Rank Diff
2018/02/22 44 586 -3 423
2018/02/21 48 009 -9 137
2018/02/20 57 146 -10 519
2018/02/19 67 665 +28 139
2018/02/18 39 526 -21 341
2018/02/17 60 867 +15 681
2018/02/16 45 186 -2 289
2018/02/15 47 475 -6 647
2018/02/14 54 122 -93 691
2018/02/13 147 813 +88 788
2018/02/12 59 025 -9 330
2018/02/11 68 355 -18 460
2018/02/10 86 815 +16 379
2018/02/09 70 436 -1 351
2018/02/08 71 787 -5 029
2018/02/07 76 816 -1 090
2018/02/06 77 906 -2 332
2018/02/05 80 238 +22 234
2018/02/04 58 004 -44 096
2018/02/03 102 100 +36 426
2018/02/02 65 674 +8 848
2018/02/01 56 826 +1 469
2018/01/31 55 357 -1 291
2018/01/30 56 648 -51
2018/01/29 56 699 +274
2018/01/28 56 425 -981
2018/01/27 57 406 -373
2018/01/26 57 779 +708
2018/01/25 57 071 +234
2018/01/24 56 837 +622
2018/01/23 56 215 +362
2018/01/22 55 853 +134
2018/01/21 55 719 -924
2018/01/20 56 643 +52
2018/01/19 56 591 -383
2018/01/18 56 974 -150
2018/01/17 57 124 +124
2018/01/16 57 000 +1 191
2018/01/15 55 809 -101
2018/01/14 55 910 -40
2018/01/13 55 950 +146
2018/01/12 55 804 +144
2018/01/11 55 660 -428
2018/01/10 56 088 +202
2018/01/09 55 886 +55
2018/01/08 55 831 -593
2018/01/07 56 424 -66
2018/01/06 56 490 -1 090
2018/01/05 57 580 -763
2018/01/04 58 343 +251
2018/01/03 58 092 +40
2018/01/02 58 052 -96
2018/01/01 58 148 -201
2017/12/31 58 349 -830
2017/12/30 59 179 +184
2017/12/29 58 995 -72
2017/12/28 59 067 +881
2017/12/27 58 186 -457
2017/12/26 58 643 +909
2017/12/25 57 734 +2 152
2017/12/24 55 582

WIDGET FOR YOUR SITE

DOMAINS WITH THE NEAREST RANK

Domain Rank
theadvertplatform.com 44 581
motimoti3d.jp 44 582
onlinesim.ru 44 583
powerofvitality.com 44 584
os-templates.com 44 585
daydeal.ch 44 586
legitreviews.com 44 587
unitedhealthcareonline.com 44 588
tomoson.com 44 589
toddmotto.com 44 590
lums.edu.pk 44 591

DOMAINS WITH THE NEAREST RANK BY TLD .ch

Domain Rank
ch.ch 41 252
cash.ch 41 368
ti.ch 42 952
conrad.ch 43 709
derbund.ch 44 144
daydeal.ch 44 586
fhnw.ch 45 302
widewalls.ch 45 352
swisspass.ch 46 731
petitesannonces.ch 46 920
goojara.ch 47 773